DEHUE EDLW-EDLP

Flight info

Callsign DEHUE
Flight time N/A
Altitude 7000
Route HMM7Q HMM L620 EXOBA EXOBA3H
Aircraft BE36/L-BDFGLORY/S

Departure

Time 2026-05-05 17:27
Airport Dortmund Airport (EDLW)

Arrival

Time N/A
Airport Paderborn Lippstadt Airport (EDLP)
Time Latitude Longitude Altitude Speed Heading
2026-05-05 17:12 51.51424 7.61021 432 ft 0 kts 134°
2026-05-05 17:23 51.51433 7.61055 428 ft 7 kts
2026-05-05 17:23 51.51486 7.61022 425 ft 9 kts
2026-05-05 17:24 51.51539 7.61063 420 ft 10 kts 334°
2026-05-05 17:24 51.51571 7.60980 423 ft 10 kts 261°
2026-05-05 17:24 51.51558 7.60898 422 ft 7 kts 255°
2026-05-05 17:24 51.51542 7.60808 419 ft 10 kts 254°
2026-05-05 17:25 51.51529 7.60722 416 ft 0 kts 258°
2026-05-05 17:25 51.51527 7.60698 416 ft 9 kts 269°
2026-05-05 17:25 51.51571 7.60611 415 ft 11 kts 347°
2026-05-05 17:26 51.51632 7.60658 416 ft 9 kts 56°
2026-05-05 17:26 51.51732 7.60939 417 ft 71 kts 60°
2026-05-05 17:26 51.52095 7.61908 518 ft 123 kts 58°
2026-05-05 17:26 51.52660 7.63151 701 ft 149 kts 43°
2026-05-05 17:27 51.53574 7.64032 919 ft 158 kts 19°
2026-05-05 17:27 51.54685 7.64057 960 ft 168 kts 349°
2026-05-05 17:27 51.55814 7.63679 1167 ft 166 kts 346°
2026-05-05 17:27 51.56961 7.63276 1242 ft 171 kts 346°
2026-05-05 17:28 51.58119 7.62864 1387 ft 169 kts 347°
2026-05-05 17:28 51.59253 7.62470 1534 ft 168 kts 347°
2026-05-05 17:28 51.60403 7.62073 1687 ft 168 kts 347°
2026-05-05 17:28 51.61545 7.61679 1837 ft 167 kts 348°
2026-05-05 17:29 51.62670 7.61943 1985 ft 168 kts 31°
2026-05-05 17:29 51.63327 7.63440 2136 ft 168 kts 78°
2026-05-05 17:29 51.63357 7.65340 2195 ft 173 kts 92°
2026-05-05 17:29 51.63318 7.67306 2201 ft 178 kts 91°
2026-05-05 17:30 51.63408 7.69309 2204 ft 180 kts 81°
2026-05-05 17:30 51.63543 7.70630 2206 ft 181 kts 81°
2026-05-05 17:30 51.63615 7.71304 2208 ft 181 kts 80°
2026-05-05 17:30 51.63685 7.71977 2208 ft 181 kts 81°
2026-05-05 17:31 51.64248 7.77316 2212 ft 182 kts 81°
2026-05-05 17:31 51.64458 7.79325 2214 ft 182 kts 80°
2026-05-05 17:31 51.64670 7.81337 2214 ft 182 kts 81°
2026-05-05 17:31 51.64882 7.83348 2213 ft 182 kts 81°
2026-05-05 17:32 51.65094 7.85358 2213 ft 182 kts 80°
2026-05-05 17:32 51.65306 7.87369 2214 ft 182 kts 80°
2026-05-05 17:32 51.65446 7.88703 2212 ft 182 kts 81°
2026-05-05 17:32 51.65726 7.91369 2213 ft 182 kts 80°
2026-05-05 17:33 51.65938 7.93386 2213 ft 182 kts 81°
2026-05-05 17:33 51.66149 7.95403 2213 ft 183 kts 80°
2026-05-05 17:33 51.66360 7.97425 2212 ft 182 kts 81°
2026-05-05 17:33 51.66571 7.99439 2213 ft 182 kts 81°
2026-05-05 17:34 51.66782 8.01448 2212 ft 182 kts 81°
2026-05-05 17:34 51.66992 8.03459 2212 ft 182 kts 81°
2026-05-05 17:34 51.67202 8.05472 2212 ft 182 kts 81°
2026-05-05 17:34 51.67413 8.07484 2213 ft 182 kts 81°
2026-05-05 17:35 51.67620 8.09483 2214 ft 182 kts 81°
2026-05-05 17:35 51.67832 8.11503 2212 ft 182 kts 81°
2026-05-05 17:35 51.68041 8.13511 2212 ft 182 kts 81°
2026-05-05 17:35 51.68251 8.15523 2212 ft 182 kts 81°
2026-05-05 17:36 51.68460 8.17534 2212 ft 182 kts 81°
2026-05-05 17:36 51.68671 8.19551 2212 ft 182 kts 81°
2026-05-05 17:36 51.68879 8.21563 2212 ft 182 kts 81°
2026-05-05 17:36 51.69088 8.23579 2211 ft 182 kts 81°
2026-05-05 17:37 51.69297 8.25595 2210 ft 182 kts 81°
2026-05-05 17:37 51.69506 8.27606 2213 ft 182 kts 81°
2026-05-05 17:37 51.69715 8.29619 2211 ft 182 kts 81°
2026-05-05 17:37 51.69922 8.31611 2212 ft 182 kts 81°
2026-05-05 17:38 51.70131 8.33628 2213 ft 182 kts 81°
2026-05-05 17:38 51.70321 8.35649 2213 ft 182 kts 85°
2026-05-05 17:38 51.70267 8.37680 2213 ft 182 kts 99°
2026-05-05 17:38 51.69971 8.39662 2214 ft 182 kts 105°
2026-05-05 17:39 51.69522 8.41554 2215 ft 181 kts 121°
2026-05-05 17:39 51.68830 8.43249 2216 ft 181 kts 124°
2026-05-05 17:39 51.68123 8.44933 2217 ft 182 kts 124°
2026-05-05 17:39 51.67415 8.46617 2216 ft 181 kts 124°
2026-05-05 17:40 51.66706 8.48301 2217 ft 182 kts 124°
2026-05-05 17:40 51.65999 8.49985 2218 ft 182 kts 124°
2026-05-05 17:40 51.65298 8.51690 2215 ft 182 kts 121°
2026-05-05 17:40 51.64725 8.53496 2215 ft 181 kts 116°
2026-05-05 17:41 51.64169 8.55239 2189 ft 170 kts 124°
2026-05-05 17:41 51.63345 8.56482 2145 ft 157 kts 147°
2026-05-05 17:41 51.62451 8.57274 2037 ft 137 kts 155°
2026-05-05 17:41 51.61619 8.57854 1872 ft 126 kts 161°
2026-05-05 17:42 51.60830 8.58310 1539 ft 118 kts 140°
2026-05-05 17:42 51.60548 8.59347 1037 ft 96 kts 72°
2026-05-05 17:42 51.60828 8.60189 725 ft 68 kts 53°
2026-05-05 17:42 51.61081 8.60798 706 ft 90 kts 57°
2026-05-05 17:43 51.61492 8.61823 811 ft 120 kts 57°
2026-05-05 17:43 51.61990 8.63017 1042 ft 134 kts 56°
2026-05-05 17:43 51.62156 8.64392 1382 ft 125 kts 111°
2026-05-05 17:43 51.61507 8.65185 1597 ft 125 kts 180°
2026-05-05 17:44 51.60758 8.64504 1683 ft 135 kts 232°
2026-05-05 17:44 51.60180 8.63220 1636 ft 147 kts 235°
2026-05-05 17:44 51.59604 8.61845 1681 ft 150 kts 238°
2026-05-05 17:44 51.59058 8.60377 1658 ft 154 kts 241°
2026-05-05 17:45 51.58716 8.58803 1757 ft 148 kts 280°
2026-05-05 17:45 51.59288 8.57716 1637 ft 120 kts 350°
2026-05-05 17:45 51.59980 8.58182 1137 ft 112 kts 46°
2026-05-05 17:45 51.60380 8.59068 838 ft 87 kts 57°
2026-05-05 17:46 51.60691 8.59858 738 ft 79 kts 57°
2026-05-05 17:46 51.60967 8.60531 712 ft 62 kts 57°
2026-05-05 17:46 51.61334 8.61420 750 ft 119 kts 56°
2026-05-05 17:46 51.61869 8.62535 1031 ft 133 kts 34°
2026-05-05 17:47 51.62773 8.62879 1323 ft 141 kts 341°
2026-05-05 17:47 51.63310 8.61737 1496 ft 136 kts 269°
2026-05-05 17:47 51.63015 8.60253 1371 ft 149 kts 240°
2026-05-05 17:47 51.62481 8.58871 1465 ft 136 kts 234°
2026-05-05 17:48 51.61953 8.57768 1386 ft 116 kts 233°
2026-05-05 17:48 51.61466 8.56788 1258 ft 108 kts 231°
2026-05-05 17:48 51.60872 8.56768 1146 ft 99 kts 132°
2026-05-05 17:48 51.60581 8.57805 976 ft 105 kts 107°
2026-05-05 17:49 51.60498 8.58813 873 ft 83 kts 84°
2026-05-05 17:49 51.60657 8.59679 758 ft 81 kts 65°
2026-05-05 17:49 51.60924 8.60429 714 ft 68 kts 56°
2026-05-05 17:49 51.61268 8.61253 746 ft 115 kts 54°
2026-05-05 17:50 51.61986 8.61839 964 ft 128 kts 344°
2026-05-05 17:50 51.62583 8.60839 1167 ft 134 kts 274°
2026-05-05 17:50 51.62276 8.59422 1258 ft 134 kts 234°
2026-05-05 17:50 51.61889 8.58161 1354 ft 120 kts 265°
2026-05-05 17:51 51.62077 8.56864 1340 ft 127 kts 299°
2026-05-05 17:51 51.62715 8.55848 1282 ft 132 kts 329°
2026-05-05 17:51 51.63582 8.55555 1354 ft 127 kts 11°
2026-05-05 17:51 51.64257 8.56417 1288 ft 134 kts 71°
2026-05-05 17:52 51.63964 8.57698 1278 ft 133 kts 150°
2026-05-05 17:52 51.63070 8.57856 1205 ft 133 kts 193°
2026-05-05 17:52 51.62224 8.57281 1168 ft 131 kts 209°
2026-05-05 17:52 51.61426 8.56618 1163 ft 118 kts 191°
2026-05-05 17:53 51.60728 8.56834 1121 ft 98 kts 141°
2026-05-05 17:53 51.60440 8.57743 1008 ft 88 kts 99°
2026-05-05 17:53 51.60432 8.58705 889 ft 87 kts 82°
2026-05-05 17:53 51.60598 8.59626 795 ft 83 kts 62°
2026-05-05 17:54 51.60889 8.60337 715 ft 65 kts 54°
2026-05-05 17:54 51.61219 8.61165 728 ft 116 kts 57°
2026-05-05 17:54 51.61764 8.62319 912 ft 135 kts 26°
2026-05-05 17:54 51.62665 8.62151 1189 ft 138 kts 314°
2026-05-05 17:55 51.62871 8.60743 1313 ft 142 kts 245°
2026-05-05 17:55 51.62357 8.59328 1328 ft 149 kts 238°
2026-05-05 17:55 51.61784 8.57976 1399 ft 146 kts 230°
2026-05-05 17:55 51.61011 8.56945 1452 ft 147 kts 206°